Location: Newark
(25.0000°N, 73.5000°E)
Time: 10:54:47
(UTC+00:00)

Altair - Pass Details

Date: 07 March 2021
Orbit: 1501 x 1683 km, 47.2° (Epoch: 15 April)

Event Time Altitude Azimuth Distance (km) Brightness Sun altitude
Rises 11:07:59 0° 223° (SW) 4,646 11.0 26.4°
Reaches altitude 10° 11:11:01 10° 222° (SW) 3,654 10.7 25.7°
Maximum altitude 11:20:11 85° 135° (SE) 1,506 7.9 23.8°
Drops below altitude 10° 11:29:25 10° 48° (NE) 3,674 9.0 21.8°
Sets 11:32:28 0° 48° (NE) 4,672 9.5 21.1°
